This is the latest recevied weather packets stored in our database for station/object KC4LZN. If no packets are shown the sender has not sent any weather packets the latest 10 day(s).
| Time | Temp. | Humidity | Pressure | Rain* | Wind** | Luminosity | Snow |
|---|---|---|---|---|---|---|---|
| 1777902292 | 23.33° C | 54% | 1018.3 hPa | 0 mm | - | 503 W/m² | - |
| 1777901989 | 23.33° C | 59% | 1018.3 hPa | 0 mm | - | 484 W/m² | - |
| 1777901687 | 23.33° C | 60% | 1018.3 hPa | 0 mm | - | 465 W/m² | - |
| 1777901384 | 22.78° C | 63% | 1018.4 hPa | 0 mm | - | 448 W/m² | - |
| 1777901082 | 22.78° C | 63% | 1018.1 hPa | 0 mm | - | 428 W/m² | - |
| 1777900779 | 22.78° C | 65% | 1018.1 hPa | 0 mm | - | 411 W/m² | - |
| 1777900476 | 22.78° C | 65% | 1018.2 hPa | 0 mm | - | 393 W/m² | - |
| 1777900173 | 22.78° C | 67% | 1018.3 hPa | 0 mm | - | 374 W/m² | - |
| 1777899869 | 22.78° C | 67% | 1018.2 hPa | 0 mm | - | 355 W/m² | - |
| 1777899566 | 21.67° C | 69% | 1018.2 hPa | 0 mm | - | 336 W/m² | - |
| 1777899264 | 22.22° C | 69% | 1018.2 hPa | 0 mm | - | 318 W/m² | - |
| 1777898961 | 21.67° C | 69% | 1018.2 hPa | 0 mm | - | 286 W/m² | - |
| 1777898658 | 21.67° C | 70% | 1018 hPa | 0 mm | - | 264 W/m² | - |
| 1777898355 | 21.67° C | 69% | 1018.3 hPa | 0 mm | - | 251 W/m² | - |
| 1777898053 | 21.11° C | 70% | 1018.1 hPa | 0 mm | - | 244 W/m² | - |
| 1777897749 | 21.11° C | 71% | 1018 hPa | 0 mm | - | 225 W/m² | - |
| 1777897445 | 21.11° C | 70% | 1017.8 hPa | 0 mm | - | 207 W/m² | - |
| 1777897141 | 20.56° C | 72% | 1018.1 hPa | 0 mm | - | 190 W/m² | - |
| 1777896837 | 20.56° C | 72% | 1018.1 hPa | 0 mm | - | 172 W/m² | - |
| 1777896535 | 20.56° C | 72% | 1017.7 hPa | 0 mm | - | 155 W/m² | - |
| 1777896232 | 20.56° C | 72% | 1017.6 hPa | 0 mm | - | 140 W/m² | - |
| 1777895930 | 20° C | 72% | 1017.6 hPa | 0 mm | - | 125 W/m² | - |
| 1777895627 | 20° C | 73% | 1017.9 hPa | 0 mm | - | 111 W/m² | - |
| 1777895325 | 20° C | 74% | 1018 hPa | 0 mm | - | 98 W/m² | - |
| 1777895023 | 19.44° C | 74% | 1017.7 hPa | 0 mm | - | 85 W/m² | - |
* Rain latest hour (hover to see other rain measurements)
** Current wind speed in m/s (hover to see current wind gust speed)